Skip Page Navigation
NASA JPL Caltech
NASA Logo - Jet Propulsion Laboratory + View the NASA Portal
+ Near-Earth Object (NEO) Program
Search JPL
JPL Home Earth Solar System Stars & Galaxies Technology
JPL Solar System Dynamics
BODIES ORBITS EPHEMERIDES TOOLS PHYSICAL DATA DISCOVERY FAQ SITE MAP
JPL Small-Body Database Browser
Search: [ help ]  
8045 Kamiyama (1995 AW)
Classification: Main-belt Asteroid          SPK-ID: 2008045
Ephemeris | Orbit Diagram | Orbital Elements | Physical Parameters | Discovery Circumstances | Close-Approach Data ]

[ show orbit diagram ]
Orbital Elements at Epoch 2457000.5 (2014-Dec-09.0) TDB
Reference: JPL 11 (heliocentric ecliptic J2000)
 Element Value Uncertainty (1-sigma)   Units 
e .1383746597954014 6.2046e-08  
a 2.598147793314665 1.78e-08 AU
q 2.238629976316576 1.6229e-07 AU
i 11.97092349696448 5.6525e-06 deg
node 295.4569657532722 3.0092e-05 deg
peri 248.7510545900155 3.4568e-05 deg
M 222.0747444724967 1.7778e-05 deg
tp 2457586.551121227347
(2016-Jul-17.05112123)
7.6722e-05 JED
period 1529.65751511531
4.19
1.572e-05
4.304e-08
d
yr
n .2353467991642966 2.4185e-09 deg/d
Q 2.957665610312755 2.0263e-08 AU
  Orbit Determination Parameters
   # obs. used (total)      943  
   data-arc span      24084 days (65.94 yr)  
   first obs. used      1949-01-28  
   last obs. used      2015-01-06  
   planetary ephem.      DE431  
   SB-pert. ephem.      SB431-BIG16  
   condition code      0  
   fit RMS      .54469  
   data source      ORB  
   producer      Otto Matic  
   solution date      2015-Feb-04 13:21:50  

Additional Information
 Earth MOID = 1.2755 AU 
 T_jup = 3.372 
[ show covariance matrix ]

Ephemeris | Orbit Diagram | Orbital Elements | Physical Parameters | Discovery Circumstances | Close-Approach Data ]

Physical Parameter Table
Parameter Symbol Value Units Sigma Reference Notes
absolute magnitude H 12.4 mag n/a MPO267740  

8045 Kamiyama           Discovered 1995 Jan. 6 by T. Kobayashi at Oizumi.
Haruki Kamiyama (b. 1960) is an amateur astronomer and computer programmer.
NOTE: some special characters may not display properly (any characters within {} are an attempt to place the proper accent above a character)
Reference: 20030106/MPCPages.arcLast Updated: 2003-10-02

[ show close-approach data ]
Alternate Designations
 1995 AW = 1949 BH = 1970 CU = 1973 YV3 = 1991 BT4 
Ephemeris | Orbit Diagram | Orbital Elements | Physical Parameters | Discovery Circumstances | Close-Approach Data ]
ABOUT SSD CREDITS/AWARDS PRIVACY/COPYRIGHT GLOSSARY LINKS
FirstGov 2015-Mar-06 12:36 UT
(server date/time)  
NASA Home Page
Site Manager:   Ryan S. Park
Webmaster  Alan B. Chamberlin